Lake Elmo, MN

11:26 PM CST on February 23, 2017 (GMT -0600)
St. Paul Lake Elmo

Weather History for K21D - November, 2013

Change the Weather History Date:

Friday, November 22, 2013

  Actual Average (KSTP) Record (KSTP)
Temperature  
Mean Temperature 24 °F -  
Max Temperature 32 °F 37 °F 57 °F (1998)
Min Temperature 15 °F 23 °F 12 °F (2000)
Degree Days  
Heating Degree Days 42    
Moisture  
Dew Point 12 °F    
Average Humidity 63    
Maximum Humidity 86    
Minimum Humidity 38    
Precipitation  
Precipitation 0.00 in - - ()
Sea Level Pressure  
Sea Level Pressure 30.51 in    
Wind  
Wind Speed 9 mph (WNW)    
Max Wind Speed 18 mph    
Max Gust Speed 24 mph    
Visibility 10 miles    
Events      
Averages and records for this station are not official NWS values.
T = Trace of Precipitation, MM = Missing Value Source: NWS Daily Summary

Daily Weather History Graph

Daily Weather History Graph

Search for Another Location

Airport or City:

Trip Planner

Search our weather history database for the weather conditions in past years. The results will help you decide how hot, cold, wet, or windy it might be!

Date:

Astronomy

Nov. 22, 2013 Rise Set
Actual Time 7:18 AM CST 4:36 PM CST
Civil Twilight 6:46 AM CST 5:08 PM CST
Nautical Twilight 6:10 AM CST 5:44 PM CST
Astronomical Twilight 5:35 AM CST 6:19 PM CST
Moon 9:12 PM CST (11/22) 10:59 AM CST (11/22)
Length of Visible Light 10h 22m
Length of Day
9h 17m
Waning Gibbous, 78% of the Moon is Illuminated
Nov 22
Waning Gibbous
Nov 25
Last Quarter
Dec 2
New
Dec 9
First Quarter
Dec 17
Full

Hourly Weather History & Observations

Time (CST) Temp. Windchill Dew Point Humidity Pressure Visibility Wind Dir Wind Speed Gust Speed Precip Events Conditions
12:12 AM 26.6 °F 17.5 °F 17.6 °F 69% 30.49 in 10.0 mi NNW 9.2 mph 19.6 mph N/A   Overcast
12:31 AM 24.8 °F 12.9 °F 17.6 °F 74% 30.51 in 10.0 mi NNW 13.8 mph 18.4 mph N/A   Overcast
12:52 AM 24.8 °F 16.1 °F 15.8 °F 69% 30.51 in 10.0 mi NNW 8.1 mph 17.3 mph N/A   Overcast
1:12 AM 24.8 °F 16.1 °F 15.8 °F 69% 30.50 in 10.0 mi NNW 8.1 mph - N/A   Overcast
1:31 AM 24.8 °F 14.6 °F 15.8 °F 69% 30.51 in 10.0 mi NNW 10.4 mph - N/A   Overcast
1:52 AM 23.0 °F 12.4 °F 15.8 °F 74% 30.52 in 10.0 mi NW 10.4 mph - N/A   Mostly Cloudy
2:12 AM 23.0 °F 13.9 °F 14.0 °F 68% 30.53 in 10.0 mi NNW 8.1 mph - N/A   Mostly Cloudy
2:31 AM 23.0 °F 14.7 °F 14.0 °F 68% 30.53 in 10.0 mi NNW 6.9 mph - N/A   Overcast
2:52 AM 23.0 °F 12.4 °F 14.0 °F 68% 30.53 in 10.0 mi NNW 10.4 mph - N/A   Scattered Clouds
3:11 AM 23.0 °F 13.9 °F 14.0 °F 68% 30.52 in 10.0 mi NNW 8.1 mph - N/A   Clear
3:32 AM 23.0 °F 13.1 °F 14.0 °F 68% 30.52 in 10.0 mi NNW 9.2 mph - N/A   Clear
3:52 AM 23.0 °F 14.7 °F 14.0 °F 68% 30.52 in 10.0 mi NNW 6.9 mph - N/A   Clear
4:11 AM 21.2 °F 16.4 °F 14.0 °F 74% 30.52 in 10.0 mi NW 3.5 mph - N/A   Clear
4:32 AM 21.2 °F 13.6 °F 14.0 °F 74% 30.52 in 10.0 mi NNW 5.8 mph - N/A   Clear
4:52 AM 21.2 °F 11.7 °F 14.0 °F 74% 30.53 in 10.0 mi NNW 8.1 mph - N/A   Clear
5:11 AM 21.2 °F 12.6 °F 14.0 °F 74% 30.54 in 10.0 mi NNW 6.9 mph - N/A   Clear
5:32 AM 19.4 °F 10.4 °F 14.0 °F 80% 30.54 in 10.0 mi NNW 6.9 mph - N/A   Clear
5:51 AM 19.4 °F 11.5 °F 14.0 °F 80% 30.55 in 10.0 mi NW 5.8 mph - N/A   Clear
6:12 AM 19.4 °F 12.8 °F 14.0 °F 80% 30.54 in 10.0 mi NNW 4.6 mph - N/A   Clear
6:32 AM 17.6 °F 12.3 °F 14.0 °F 86% 30.55 in 10.0 mi NNW 3.5 mph - N/A   Clear
6:52 AM 17.6 °F 12.3 °F 14.0 °F 86% 30.55 in 10.0 mi WNW 3.5 mph - N/A   Clear
7:12 AM 15.8 °F 7.2 °F 12.2 °F 86% 30.56 in 10.0 mi WNW 5.8 mph - N/A   Clear
7:31 AM 15.8 °F 8.6 °F 12.2 °F 86% 30.56 in 10.0 mi WNW 4.6 mph - N/A   Clear
7:52 AM 17.6 °F - 12.2 °F 79% 30.54 in 10.0 mi Calm Calm - N/A   Clear
8:11 AM 17.6 °F 12.3 °F 14.0 °F 86% 30.56 in 10.0 mi West 3.5 mph - N/A   Clear
8:32 AM 19.4 °F 9.5 °F 14.0 °F 80% 30.57 in 10.0 mi WNW 8.1 mph - N/A   Clear
8:51 AM 19.4 °F 9.5 °F 14.0 °F 80% 30.57 in 10.0 mi WNW 8.1 mph - N/A   Clear
9:12 AM 21.2 °F 14.9 °F 14.0 °F 74% 30.56 in 10.0 mi West 4.6 mph - N/A   Clear
9:31 AM 21.2 °F 16.4 °F 14.0 °F 74% 30.56 in 10.0 mi WNW 3.5 mph - N/A   Clear
9:52 AM 23.0 °F 17.0 °F 15.8 °F 74% 30.56 in 10.0 mi WSW 4.6 mph - N/A   Clear
10:12 AM 23.0 °F 14.7 °F 14.0 °F 68% 30.56 in 10.0 mi WSW 6.9 mph - N/A   Clear
10:32 AM 24.8 °F 17.9 °F 15.8 °F 69% 30.55 in 10.0 mi SW 5.8 mph - N/A   Clear
10:51 AM 26.6 °F 20.0 °F 12.2 °F 55% 30.54 in 10.0 mi SW 5.8 mph - N/A   Clear
11:11 AM 26.6 °F 20.0 °F 14.0 °F 59% 30.54 in 10.0 mi SW 5.8 mph - N/A   Clear
11:32 AM 28.4 °F 19.7 °F 14.0 °F 55% 30.52 in 10.0 mi SW 9.2 mph - N/A   Clear
11:51 AM 28.4 °F 19.1 °F 14.0 °F 55% 30.51 in 10.0 mi SW 10.4 mph - N/A   Clear
12:12 PM 30.2 °F 20.2 °F 14.0 °F 51% 30.51 in 10.0 mi WSW 12.7 mph - N/A   Clear
12:31 PM 30.2 °F 20.2 °F 12.2 °F 47% 30.51 in 10.0 mi SW 12.7 mph - N/A   Clear
12:52 PM 30.2 °F 19.8 °F 10.4 °F 44% 30.50 in 10.0 mi SW 13.8 mph 18.4 mph N/A   Clear
1:12 PM 32.0 °F 21.6 °F 8.6 °F 38% 30.49 in 10.0 mi SW 15.0 mph 19.6 mph N/A   Clear
1:31 PM 32.0 °F 22.5 °F 8.6 °F 38% 30.48 in 10.0 mi SW 12.7 mph - N/A   Clear
1:52 PM 32.0 °F 23.0 °F 8.6 °F 38% 30.46 in 10.0 mi SW 11.5 mph - N/A   Clear
2:11 PM 32.0 °F 23.0 °F 8.6 °F 38% 30.45 in 10.0 mi SW 11.5 mph - N/A   Clear
2:32 PM 32.0 °F 24.2 °F 8.6 °F 38% 30.44 in 10.0 mi SW 9.2 mph - N/A   Clear
2:51 PM 32.0 °F 22.5 °F 8.6 °F 38% 30.45 in 10.0 mi WSW 12.7 mph 17.3 mph N/A   Clear
3:12 PM 32.0 °F 23.0 °F 8.6 °F 38% 30.45 in 10.0 mi WSW 11.5 mph - N/A   Clear
3:32 PM 32.0 °F 24.2 °F 10.4 °F 41% 30.45 in 10.0 mi SW 9.2 mph - N/A   Clear
3:51 PM 32.0 °F 24.8 °F 8.6 °F 38% 30.45 in 10.0 mi WSW 8.1 mph - N/A   Clear
4:12 PM 32.0 °F 24.2 °F 10.4 °F 41% 30.45 in 10.0 mi WSW 9.2 mph - N/A   Clear
4:31 PM 30.2 °F 23.4 °F 10.4 °F 44% 30.44 in 10.0 mi WSW 6.9 mph - N/A   Clear
4:52 PM 30.2 °F 25.4 °F 10.4 °F 44% 30.44 in 10.0 mi WSW 4.6 mph - N/A   Clear
5:11 PM 28.4 °F 21.2 °F 10.4 °F 47% 30.44 in 10.0 mi WNW 6.9 mph - N/A   Clear
5:32 PM 30.2 °F 21.9 °F 10.4 °F 44% 30.45 in 10.0 mi WNW 9.2 mph - N/A   Clear
5:51 PM 30.2 °F 20.2 °F 10.4 °F 44% 30.45 in 10.0 mi WNW 12.7 mph 18.4 mph N/A   Clear
6:12 PM 28.4 °F 18.0 °F 12.2 °F 51% 30.46 in 10.0 mi NNW 12.7 mph 17.3 mph N/A   Mostly Cloudy
6:31 PM 28.4 °F 18.5 °F 12.2 °F 51% 30.46 in 10.0 mi NW 11.5 mph 21.9 mph N/A   Overcast
6:51 PM 28.4 °F 18.0 °F 12.2 °F 51% 30.47 in 10.0 mi NNW 12.7 mph 24.2 mph N/A   Overcast
7:12 PM 26.6 °F 15.7 °F 17.6 °F 69% 30.48 in 10.0 mi NW 12.7 mph 23.0 mph N/A   Overcast
7:31 PM 26.6 °F 16.2 °F 14.0 °F 59% 30.48 in 10.0 mi NW 11.5 mph - N/A   Overcast
7:52 PM 26.6 °F 14.3 °F 17.6 °F 69% 30.49 in 10.0 mi NNW 16.1 mph 24.2 mph N/A   Overcast
8:11 PM 24.8 °F 11.9 °F 15.8 °F 69% 30.51 in 10.0 mi NW 16.1 mph 24.2 mph N/A   Overcast
8:32 PM 23.0 °F 12.4 °F 14.0 °F 68% 30.51 in 10.0 mi NW 10.4 mph 18.4 mph N/A   Overcast
8:51 PM 23.0 °F 8.7 °F 14.0 °F 68% 30.52 in 10.0 mi NW 18.4 mph 24.2 mph N/A   Overcast
9:12 PM 21.2 °F 7.8 °F 10.4 °F 63% 30.53 in 10.0 mi NNW 15.0 mph 23.0 mph N/A   Scattered Clouds
9:32 PM 21.2 °F 8.9 °F 10.4 °F 63% 30.54 in 10.0 mi NNW 12.7 mph 18.4 mph N/A   Mostly Cloudy
9:51 PM 21.2 °F 8.3 °F 10.4 °F 63% 30.54 in 10.0 mi NW 13.8 mph 23.0 mph N/A   Mostly Cloudy
10:12 PM 19.4 °F 6.6 °F 10.4 °F 68% 30.56 in 10.0 mi NNW 12.7 mph 20.7 mph N/A   Overcast
10:31 PM 17.6 °F 2.7 °F 8.6 °F 68% 30.56 in 10.0 mi NW 16.1 mph 21.9 mph N/A   Scattered Clouds
10:52 PM 17.6 °F 1.7 °F 6.8 °F 63% 30.57 in 10.0 mi NW 18.4 mph 24.2 mph N/A   Clear
11:11 PM 15.8 °F 3.4 °F 5.0 °F 62% 30.58 in 10.0 mi NW 10.4 mph 21.9 mph N/A   Clear
11:31 PM 15.8 °F 2.1 °F 6.8 °F 68% 30.59 in 10.0 mi NW 12.7 mph 18.4 mph N/A   Mostly Cloudy
11:52 PM 15.8 °F 2.1 °F 6.8 °F 68% 30.60 in 10.0 mi NNW 12.7 mph 18.4 mph N/A   Overcast